Location: Ariel
(45.9570°N, 122.5700°W)
Time: 22:44:45
(UTC-07:00)

A-11 Canister half - Pass Details

Date: 28 August 2019
Orbit: 1514 x 1686 km, 47.2° (Epoch: 15 September)

Event Time Altitude Azimuth Distance (km) Brightness Sun altitude
Rises 20:43:23 0° 276° (W) 4,700 13.2 -8.6°
Reaches altitude 10° 20:46:23 10° 277° (W) 3,735 12.4 -9.1°
Maximum altitude 20:55:55 85° 6° (N) 1,602 9.1 -10.6°
Enters shadow 21:05:26 12° 96° (E) 3,742 10.4 -12.1°
